409P/LONEOS-Hill (2006)

Japanese version
Home page
Updated on December 11, 2020

---------------------------------------------------------------------

* Profile

Designation 409P/2005 XA54
Discovery Date December 4, 2005 and January 6, 2006
Magnitude 18.5 mag, 17.1 mag
Discoverer Lowell Observatory Near-Earth Object Search, Rik Hill (Catalina Sky Surve)

* Pictures

* Orbital Elements

Epoch 2006 Mar. 6.0 TT = JDT 2453800.5                                          
T 2006 Mar. 7.90556 TT                                  Rudenko                 
q   1.7776384            (2000.0)            P               Q                  
n   0.06490671     Peri.   15.35929     -0.93064831     -0.32412933             
a   6.1321060      Node   144.24830     +0.29758705     -0.94046631             
e   0.7101096      Incl.   16.89548     +0.21292175     -0.10229022             
P  15.2                                                                         
From 570 observations 2005 Dec. 4-2020 Nov. 17, mean residual 0".5.             

* Finding Charts

* Magnitudes Graph

        m1 = 9.0 + 5 log d + 27.0 log r(t - 10)

---------------------------------------------------------------------

The orbital elements are published on M.P.E.C. 2020-W25.
The charts are made with StellaNavigator Ver.2.0 for Windows (AstroArts / ASCII).
The magnitudes graphs are made with Comet for Windows.

---------------------------------------------------------------------

Copyright(C) Seiichi Yoshida (comet@aerith.net). All rights reserved.